Location: Casteau
(50.5142°N, 4.0161°E)
Time: 04:33:57
(UTC+00:00)

Vanguard 1 Rocket - Pass Details

Date: 03 August 2021
Orbit: 650 x 4226 km, 34.3° (Epoch: 21 September)

Event Time Altitude Azimuth Distance (km) Brightness Sun altitude
Rises 09:12:45 0° 229° (SW) 8,265 12.2 44.4°
Reaches altitude 10° 09:19:41 10° 222° (SW) 6,904 11.9 45.3°
Maximum altitude 09:37:03 34° 168° (SSE) 3,798 11.7 47.6°
Drops below altitude 10° 09:47:31 10° 109° (ESE) 4,196 11.6 48.8°
Sets 09:50:30 0° 99° (E) 4,797 11.6 49.2°
